This demonstration page uses our WeatherBlox Daily Observations layout. Learn more.

40.92945, -100.16068

Hourly Observations for January 5, 2015

Temp ( °F °C ) Dew Point ( °F °C ) Humidity (%) Winds ( mph kmh ) Pressure ( in mb ) Visibility ( mi km ) Precip ( " mm )
12:15 am 00:15 Cloudy 10 -12.2 4 -15.6 76 76 SSW 6 9 30.8 1043 10 16.0934 N/A
12:35 am 00:35 Partly Cloudy 9 -12.7 2 -16.5 73 73 S 3 6 30.8 1043 10 16.0934 N/A
12:55 am 00:55 Clear 9 -13 2 -16.6 75 75 Calm 30.83 1044 10 16.0934 N/A
1:15 am 01:15 Clear 8 -13.6 1 -17 76 76 Calm 30.8 1043 10 16.0934 N/A
1:35 am 01:35 Partly Cloudy 6 -14.3 1 -17.1 80 80 ENE 3 6 30.8 1043 10 16.0934 N/A
1:55 am 01:55 Partly Cloudy 4 -15.3 0 -17.8 81 81 Calm 30.83 1044 10 16.0934 N/A
2:15 am 02:15 Clear 5 -14.8 1 -17.1 83 83 Calm 30.83 1044 10 16.0934 N/A
2:35 am 02:35 Clear 6 -14.6 1 -17.5 79 79 SE 3 6 30.83 1044 10 16.0934 N/A
2:55 am 02:55 Clear 4 -15.4 -1 -18.5 77 77 SSE 6 9 30.83 1044 10 16.0934 N/A
3:15 am 03:15 Mostly Cloudy 4 -15.6 -1 -18.2 81 81 S 5 7 30.83 1044 10 16.0934 N/A
3:35 am 03:35 Cloudy 6 -14.2 2 -16.8 81 81 SSE 3 6 30.8 1043 10 16.0934 N/A
3:55 am 03:55 Cloudy 8 -13.4 2 -16.5 78 78 SSE 6 9 30.77 1042 10 16.0934 N/A
4:15 am 04:15 Cloudy 9 -12.9 2 -16.5 75 75 S 6 9 30.74 1041 10 16.0934 N/A
4:35 am 04:35 Cloudy 9 -12.7 1 -17.3 69 69 S 7 11 30.74 1041 10 16.0934 N/A
4:55 am 04:55 Cloudy 10 -12.5 1 -17 69 69 S 8 13 30.71 1040 10 16.0934 N/A
5:15 am 05:15 Cloudy 10 -12.5 1 -17.1 69 69 S 9 15 30.68 1039 10 16.0934 N/A
5:35 am 05:35 Cloudy 9 -12.6 1 -17 70 70 SSE 7 11 30.68 1039 10 16.0934 N/A
5:55 am 05:55 Cloudy 10 -12.3 1 -17.3 67 67 S 12 19 30.65 1038 10 16.0934 N/A
6:15 am 06:15 Cloudy 10 -12.5 0 -17.7 65 65 SSE 10 17 30.65 1038 10 16.0934 N/A
6:35 am 06:35 Cloudy 9 -12.8 0 -17.6 68 68 S 12 19 30.65 1038 10 16.0934 N/A
6:55 am 06:55 Partly Cloudy 8 -13.3 1 -17.5 71 71 SSE 10 17 30.65 1038 10 16.0934 N/A
7:15 am 07:15 Clear 8 -13.4 1 -17 75 75 SSE 10 17 30.65 1038 10 16.0934 N/A
7:35 am 07:35 Clear 8 -13.3 2 -16.8 75 75 SSE 12 19 30.65 1038 10 16.0934 N/A
7:55 am 07:55 Clear 8 -13.2 1 -17 73 73 SSE 12 19 30.59 1036 10 16.0934 N/A
8:15 am 08:15 Sunny 8 -13.2 1 -17.2 72 72 S 14 22 30.56 1035 10 16.0934 N/A
8:35 am 08:35 Mostly Cloudy 9 -13 1 -17.2 71 71 S 10 17 30.56 1035 10 16.0934 N/A
8:55 am 08:55 Cloudy 9 -12.8 1 -17.2 70 70 SSE 13 20 30.56 1035 10 16.0934 N/A
9:15 am 09:15 Cloudy 10 -12.4 1 -17 69 69 S 15 24 30.53 1034 10 16.0934 N/A
9:35 am 09:35 Cloudy 10 -12.1 1 -17 67 67 S 17 28 30.53 1034 10 16.0934 N/A
9:55 am 09:55 Cloudy 10 -12 2 -16.8 68 68 S 15 24 30.5 1033 10 16.0934 N/A
10:15 am 10:15 Cloudy 11 -11.6 2 -16.4 68 68 S 17 28 30.5 1033 10 16.0934 N/A
10:35 am 10:35 Cloudy 11 -11.5 2 -16.5 67 67 S 15 24 30.45 1031 10 16.0934 N/A
10:55 am 10:55 Cloudy 11 -11.5 2 -16.7 66 66 S 17 28 30.45 1031 10 16.0934 N/A
11:15 am 11:15 Cloudy 12 -11.1 2 -16.5 65 65 S 16 26 30.42 1030 10 16.0934 N/A
11:35 am 11:35 Cloudy 13 -10.8 3 -16.2 65 65 S 17 28 30.39 1029 10 16.0934 N/A
11:55 am 11:55 Cloudy 13 -10.3 4 -15.6 65 65 S 15 24 30.36 1028 10 16.0934 N/A
12:15 pm 12:15 Cloudy 14 -9.9 5 -14.8 68 68 S 18 30 30.33 1027 10 16.0934 N/A
12:35 pm 12:35 Cloudy 14 -9.8 6 -14.6 68 68 S 18 30 30.27 1025 10 16.0934 N/A
12:55 pm 12:55 Cloudy 15 -9.5 7 -14 70 70 S 20 31 30.24 1024 10 16.0934 N/A
1:15 pm 13:15 Cloudy 15 -9.3 8 -13.5 72 72 S 18 30 30.24 1024 10 16.0934 N/A
1:35 pm 13:35 Cloudy 16 -9 8 -13.1 72 72 SSW 18 30 30.24 1024 10 16.0934 N/A
1:55 pm 13:55 Partly Cloudy 17 -8.5 10 -12.5 73 73 SSW 16 26 30.24 1024 10 16.0934 N/A
2:15 pm 14:15 Sunny 17 -8.1 10 -12.2 73 73 SSW 21 33 30.24 1024 10 16.0934 N/A
2:35 pm 14:35 Sunny 18 -7.7 11 -11.5 74 74 SSW 15 24 30.24 1024 10 16.0934 N/A
2:55 pm 14:55 Sunny 18 -7.8 11 -11.7 74 74 SW 22 35 30.24 1024 10 16.0934 N/A
3:15 pm 15:15 Sunny 18 -7.8 11 -11.6 74 74 SSW 16 26 30.24 1024 10 16.0934 N/A
3:35 pm 15:35 Sunny 18 -7.6 11 -11.5 74 74 SW 14 22 30.24 1024 10 16.0934 N/A
3:55 pm 15:55 Sunny 19 -7.5 12 -11.2 75 75 SW 13 20 30.21 1023 10 16.0934 N/A
4:15 pm 16:15 Sunny 19 -7.1 13 -10.8 75 75 SW 12 19 30.21 1023 10 16.0934 N/A
4:35 pm 16:35 Sunny 19 -7 13 -10.5 76 76 WSW 8 13 30.21 1023 10 16.0934 N/A
4:55 pm 16:55 Sunny 19 -7 13 -10.5 76 76 SW 7 11 30.21 1023 10 16.0934 N/A
5:15 pm 17:15 Sunny 19 -7.1 13 -10.5 77 77 WSW 8 13 30.21 1023 10 16.0934 N/A
5:35 pm 17:35 Clear 19 -7.2 13 -10.5 78 78 W 3 6 30.21 1023 10 16.0934 N/A
5:55 pm 17:55 Clear 17 -8.2 12 -11 80 80 WNW 3 6 30.27 1025 10 16.0934 N/A
6:15 pm 18:15 Clear 17 -8.5 12 -11.1 82 82 W 6 9 30.27 1025 10 16.0934 N/A
6:35 pm 18:35 Clear 16 -9.1 11 -11.6 82 82 WSW 7 11 30.27 1025 10 16.0934 N/A
6:55 pm 18:55 Clear 16 -9.1 11 -11.5 83 83 WSW 3 6 30.27 1025 10 16.0934 N/A
7:15 pm 19:15 Clear 16 -9 11 -11.4 83 83 W 7 11 30.27 1025 10 16.0934 N/A
7:35 pm 19:35 Clear 16 -8.7 11 -11.4 81 81 W 7 11 30.3 1026 10 16.0934 N/A
7:55 pm 19:55 Clear 17 -8.5 12 -11.2 81 81 W 8 13 30.3 1026 10 16.0934 N/A
8:15 pm 20:15 Mostly Cloudy 18 -7.6 13 -10.5 80 80 W 7 11 30.3 1026 10 16.0934 N/A
8:35 pm 20:35 Mostly Cloudy 20 -6.9 13 -10.3 77 77 WNW 12 19 30.33 1027 10 16.0934 N/A
8:55 pm 20:55 Partly Cloudy 19 -7.3 13 -10.5 78 78 WNW 8 13 30.33 1027 10 16.0934 N/A
9:15 pm 21:15 Partly Cloudy 19 -7 13 -10.3 78 78 WNW 10 17 30.33 1027 10 16.0934 N/A
9:35 pm 21:35 Mostly Cloudy 21 -6.2 15 -9.6 77 77 NW 12 19 30.33 1027 10 16.0934 N/A
9:55 pm 21:55 Cloudy 21 -5.9 16 -9.1 78 78 NW 6 9 30.36 1028 10 16.0934 N/A
10:15 pm 22:15 Cloudy 25 -4.1 20 -6.7 82 82 N 14 22 30.39 1029 10 16.0934 N/A
10:35 pm 22:35 Cloudy 29 -1.4 23 -5 77 77 N 24 39 30.39 1029 10 16.0934 N/A
10:55 pm 22:55 Cloudy 28 -2.5 21 -6.3 75 75 N 25 41 30.39 1029 10 16.0934 N/A
11:15 pm 23:15 Mostly Cloudy 25 -3.8 19 -7.5 76 76 N 24 39 30.45 1031 10 16.0934 N/A
11:35 pm 23:35 Partly Cloudy 22 -5.5 16 -9.1 76 76 N 17 28 30.45 1031 10 16.0934 N/A
11:55 pm 23:55 Clear 21 -6.2 15 -9.7 77 77 N 15 24 30.5 1033 10 16.0934 N/A

Powered by AerisWeather